| time (UTC) | temp F | wind direction | speed MPH | gust MPH | rain 1hr in | rain 24hr in | rain mn in | humidity % | barometer mb |
| 20260901151704 | 60 | 235 | 3.0 | 3.0 | 0.26 | 0.69 | 0.65 | 96 | 1014.7 |
| 20260901151204 | 59 | 247 | 3.0 | 6.0 | 0.26 | 0.69 | 0.65 | 96 | 1014.8 |
| 20260901150704 | 59 | 239 | 2.0 | 7.0 | 0.27 | 0.69 | 0.65 | 96 | 1014.7 |
| 20260901150204 | 59 | 248 | 4.0 | 9.0 | 0.29 | 0.69 | 0.65 | 96 | 1015.0 |
| 20260901145704 | 59 | 242 | 5.0 | 9.0 | 0.31 | 0.69 | 0.64 | 96 | 1015.0 |
| 20260901145204 | 59 | 250 | 3.0 | 7.0 | 0.31 | 0.66 | 0.61 | 96 | 1014.9 |
| 20260901144704 | 59 | 284 | 3.0 | 7.0 | 0.27 | 0.61 | 0.56 | 96 | 1015.0 |
| 20260901144204 | 59 | 254 | 3.0 | 7.0 | 0.20 | 0.54 | 0.49 | 96 | 1014.9 |
| 20260901143703 | 59 | 245 | 3.0 | 6.0 | 0.15 | 0.47 | 0.43 | 96 | 1015.1 |
| 20260901143204 | 59 | 252 | 4.0 | 7.0 | 0.13 | 0.44 | 0.39 | 96 | 1015.0 |
| 20260901142704 | 59 | 243 | 3.0 | 7.0 | 0.15 | 0.44 | 0.39 | 96 | 1014.9 |
| 20260901142204 | 59 | 272 | 4.0 | 9.0 | 0.17 | 0.44 | 0.39 | 96 | 1015.0 |
| 20260901141704 | 59 | 264 | 3.0 | 8.0 | 0.18 | 0.43 | 0.39 | 96 | 1014.9 |
| 20260901141204 | 58 | 268 | 5.0 | 10.0 | 0.19 | 0.43 | 0.39 | 95 | 1014.9 |
| 20260901140704 | 58 | 246 | 4.0 | 6.0 | 0.20 | 0.43 | 0.38 | 95 | 1015.0 |
| 20260901140204 | 58 | 256 | 3.0 | 6.0 | 0.21 | 0.40 | 0.35 | 95 | 1015.0 |
| 20260901135704 | 59 | 234 | 3.0 | 7.0 | 0.18 | 0.37 | 0.32 | 95 | 1015.1 |
| 20260901135203 | 59 | 239 | 5.0 | 9.0 | 0.17 | 0.35 | 0.31 | 95 | 1015.0 |
| 20260901134704 | 59 | 256 | 6.0 | 10.0 | 0.15 | 0.34 | 0.29 | 95 | 1015.2 |
| 20260901134204 | 59 | 262 | 6.0 | 12.0 | 0.14 | 0.33 | 0.28 | 95 | 1015.0 |
| 20260901133704 | 60 | 269 | 6.0 | 10.0 | 0.13 | 0.32 | 0.28 | 95 | 1015.0 |
| 20260901133204 | 60 | 255 | 7.0 | 12.0 | 0.12 | 0.31 | 0.26 | 95 | 1015.1 |
| 20260901132704 | 60 | 251 | 7.0 | 13.0 | 0.10 | 0.29 | 0.24 | 95 | 1015.0 |
| 20260901132204 | 60 | 271 | 7.0 | 12.0 | 0.08 | 0.27 | 0.22 | 95 | 1015.0 |
| 20260901131703 | 60 | 251 | 9.0 | 15.0 | 0.06 | 0.25 | 0.20 | 94 | 1015.1 |
| 20260901122704 | 61 | 251 | 7.0 | 15.0 | 0.00 | 0.19 | 0.14 | 94 | 1014.7 |
| 20260901121703 | 62 | 232 | 13.0 | 20.0 | 0.00 | 0.19 | 0.14 | 94 | 1014.5 |
| 20260901121204 | 62 | 217 | 13.0 | 15.0 | 0.00 | 0.19 | 0.14 | 95 | 1014.4 |
| 20260901120703 | 62 | 220 | 13.0 | 15.0 | 0.00 | 0.19 | 0.14 | 95 | 1014.5 |
| 20260901120204 | 62 | 0 | 9.0 | 13.0 | 0.00 | 0.19 | 0.14 | 95 | 1014.5 |
| 20260901115704 | 62 | 243 | 9.0 | 16.0 | 0.00 | 0.19 | 0.14 | 95 | 1014.5 |
| 20260901114704 | 62 | 314 | 10.0 | 15.0 | 0.00 | 0.19 | 0.14 | 96 | 1014.5 |
| 20260901114204 | 62 | 254 | 7.0 | 13.0 | 0.00 | 0.19 | 0.14 | 96 | 1014.5 |
| 20260901113703 | 61 | 251 | 9.0 | 15.0 | 0.00 | 0.19 | 0.14 | 96 | 1014.4 |
| 20260901113204 | 61 | 314 | 8.0 | 13.0 | 0.00 | 0.19 | 0.14 | 96 | 1014.5 |
| 20260901112704 | 61 | 248 | 7.0 | 12.0 | 0.00 | 0.19 | 0.14 | 96 | 1014.4 |
| 20260901112204 | 61 | 244 | 6.0 | 10.0 | 0.00 | 0.19 | 0.14 | 96 | 1014.4 |
| 20260901111704 | 61 | 265 | 7.0 | 14.0 | 0.00 | 0.19 | 0.14 | 96 | 1014.4 |
| 20260901111204 | 61 | 262 | 7.0 | 14.0 | 0.00 | 0.19 | 0.14 | 96 | 1014.4 |
| 20260901110704 | 61 | 223 | 9.0 | 14.0 | 0.00 | 0.19 | 0.14 | 96 | 1014.4 |
| 20260901105204 | 61 | 248 | 6.0 | 9.0 | 0.00 | 0.19 | 0.14 | 96 | 1014.3 |
| 20260901104204 | 61 | 276 | 5.0 | 12.0 | 0.00 | 0.19 | 0.14 | 96 | 1014.5 |
| 20260901103204 | 61 | 237 | 7.0 | 13.0 | 0.01 | 0.19 | 0.14 | 96 | 1014.4 |
| 20260901102203 | 61 | 252 | 3.0 | 10.0 | 0.01 | 0.19 | 0.14 | 96 | 1014.5 |
| 20260901101703 | 60 | 227 | 6.0 | 10.0 | 0.01 | 0.19 | 0.14 | 96 | 1014.5 |
| 20260901101204 | 60 | 254 | 7.0 | 12.0 | 0.01 | 0.19 | 0.14 | 96 | 1014.4 |
| 20260901100704 | 60 | 248 | 8.0 | 14.0 | 0.01 | 0.19 | 0.14 | 96 | 1014.6 |
| 20260901100205 | 59 | 287 | 9.0 | 14.0 | 0.01 | 0.19 | 0.14 | 96 | 1014.5 |
| 20260901095704 | 59 | 249 | 6.0 | 10.0 | 0.01 | 0.19 | 0.14 | 96 | 1014.6 |
| 20260901095204 | 59 | 253 | 7.0 | 14.0 | 0.02 | 0.19 | 0.14 | 96 | 1014.5 |
| 20260901094204 | 59 | 237 | 8.0 | 13.0 | 0.02 | 0.19 | 0.14 | 96 | 1014.4 |
| 20260901093703 | 59 | 271 | 10.0 | 16.0 | 0.02 | 0.18 | 0.13 | 96 | 1014.3 |
| 20260901093204 | 59 | 241 | 9.0 | 16.0 | 0.02 | 0.18 | 0.13 | 96 | 1014.4 |
| 20260901092704 | 59 | 256 | 7.0 | 14.0 | 0.02 | 0.18 | 0.13 | 96 | 1014.3 |
| 20260901092204 | 60 | 269 | 6.0 | 14.0 | 0.02 | 0.18 | 0.13 | 96 | 1014.3 |
| 20260901091704 | 59 | 260 | 8.0 | 14.0 | 0.02 | 0.18 | 0.13 | 96 | 1014.3 |
| 20260901090204 | 60 | 233 | 7.0 | 12.0 | 0.02 | 0.18 | 0.13 | 96 | 1014.3 |
| 20260901085703 | 59 | 247 | 8.0 | 16.0 | 0.02 | 0.18 | 0.13 | 96 | 1014.3 |
| 20260901084703 | 60 | 252 | 7.0 | 13.0 | 0.00 | 0.17 | 0.12 | 96 | 1014.2 |
| 20260901083704 | 60 | 250 | 8.0 | 13.0 | 0.00 | 0.17 | 0.12 | 96 | 1014.0 |
| 20260901083204 | 60 | 220 | 6.0 | 10.0 | 0.00 | 0.17 | 0.12 | 96 | 1014.0 |
| 20260901082704 | 59 | 238 | 8.0 | 12.0 | 0.00 | 0.17 | 0.12 | 96 | 1014.1 |
| 20260901082204 | 59 | 238 | 7.0 | 12.0 | 0.00 | 0.17 | 0.12 | 96 | 1013.9 |
| 20260901081704 | 59 | 228 | 6.0 | 12.0 | 0.00 | 0.17 | 0.12 | 96 | 1013.9 |
| 20260901081203 | 59 | 261 | 6.0 | 12.0 | 0.00 | 0.17 | 0.12 | 96 | 1013.9 |
| 20260901080704 | 59 | 232 | 7.0 | 12.0 | 0.00 | 0.17 | 0.12 | 96 | 1013.9 |
| 20260901080204 | 59 | 252 | 6.0 | 14.0 | 0.00 | 0.17 | 0.12 | 96 | 1013.9 |
| 20260901075704 | 59 | 260 | 7.0 | 12.0 | 0.00 | 0.17 | 0.12 | 96 | 1013.9 |
| 20260901075204 | 59 | 233 | 9.0 | 12.0 | 0.00 | 0.17 | 0.12 | 96 | 1013.9 |
| 20260901074704 | 59 | 239 | 7.0 | 14.0 | 0.01 | 0.17 | 0.12 | 96 | 1013.8 |
| 20260901074204 | 59 | 239 | 5.0 | 12.0 | 0.01 | 0.17 | 0.12 | 96 | 1013.9 |
| 20260901073704 | 59 | 216 | 7.0 | 12.0 | 0.02 | 0.17 | 0.12 | 96 | 1013.8 |
| 20260901073204 | 59 | 233 | 6.0 | 13.0 | 0.02 | 0.17 | 0.12 | 96 | 1013.9 |
| 20260901072703 | 58 | 217 | 5.0 | 7.0 | 0.02 | 0.17 | 0.12 | 96 | 1013.7 |
| 20260901072204 | 58 | 227 | 4.0 | 9.0 | 0.02 | 0.17 | 0.12 | 96 | 1013.7 |
| 20260901071704 | 58 | 230 | 2.0 | 7.0 | 0.03 | 0.17 | 0.12 | 96 | 1013.8 |
| 20260901071204 | 58 | 215 | 5.0 | 7.0 | 0.03 | 0.17 | 0.12 | 96 | 1013.9 |
| 20260901070703 | 58 | 212 | 3.0 | 5.0 | 0.03 | 0.17 | 0.12 | 95 | 1013.9 |
| 20260901070204 | 58 | 251 | 2.0 | 5.0 | 0.05 | 0.17 | 0.12 | 95 | 1014.0 |
| 20260901065204 | 58 | 234 | 4.0 | 7.0 | 0.10 | 0.17 | 0.12 | 95 | 1014.1 |
| 20260901064704 | 58 | 255 | 4.0 | 8.0 | 0.09 | 0.17 | 0.11 | 95 | 1014.2 |
| 20260901064203 | 58 | 251 | 4.0 | 8.0 | 0.10 | 0.17 | 0.11 | 95 | 1014.1 |
| 20260901063705 | 58 | 248 | 5.0 | 9.0 | 0.09 | 0.16 | 0.10 | 95 | 1014.1 |
| 20260901063204 | 58 | 232 | 6.0 | 12.0 | 0.09 | 0.16 | 0.10 | 95 | 1014.2 |
| 20260901062203 | 58 | 260 | 4.0 | 10.0 | 0.09 | 0.15 | 0.09 | 95 | 1014.1 |
| 20260901061704 | 58 | 255 | 6.0 | 12.0 | 0.08 | 0.14 | 0.09 | 95 | 1014.2 |
| 20260901061204 | 58 | 248 | 4.0 | 8.0 | 0.08 | 0.14 | 0.09 | 95 | 1014.1 |
| 20260901060703 | 58 | 248 | 5.0 | 9.0 | 0.08 | 0.14 | 0.09 | 94 | 1014.0 |
| 20260901055703 | 58 | 262 | 5.0 | 12.0 | 0.03 | 0.09 | 0.04 | 94 | 1014.1 |
| 20260901054704 | 59 | 235 | 5.0 | 12.0 | 0.01 | 0.07 | 0.02 | 94 | 1014.0 |
| 20260901054204 | 59 | 242 | 7.0 | 12.0 | 0.00 | 0.06 | 0.01 | 94 | 1013.9 |
| 20260901053203 | 59 | 234 | 8.0 | 15.0 | 0.00 | 0.07 | 0.01 | 94 | 1013.8 |
| 20260901052704 | 58 | 225 | 8.0 | 12.0 | 0.00 | 0.07 | 0.01 | 94 | 1013.8 |
| 20260901052204 | 59 | 204 | 7.0 | 14.0 | 0.00 | 0.07 | 0.01 | 94 | 1013.8 |
| 20260901051704 | 58 | 257 | 7.0 | 10.0 | 0.00 | 0.07 | 0.01 | 94 | 1013.8 |
| 20260901051203 | 58 | 237 | 6.0 | 12.0 | 0.00 | 0.07 | 0.01 | 94 | 1013.8 |
| 20260901050704 | 58 | 243 | 8.0 | 12.0 | 0.00 | 0.07 | 0.01 | 94 | 1013.8 |
| 20260901050203 | 58 | 248 | 6.0 | 13.0 | 0.00 | 0.07 | 0.01 | 94 | 1013.8 |
| 20260901045203 | 58 | 230 | 7.0 | 12.0 | 0.00 | 0.07 | 0.01 | 94 | 1013.8 |
| 20260901044703 | 58 | 251 | 6.0 | 12.0 | 0.00 | 0.07 | 0.01 | 94 | 1013.8 |
| 20260901044204 | 58 | 242 | 7.0 | 13.0 | 0.00 | 0.07 | 0.01 | 94 | 1013.7 |
| 20260901043703 | 58 | 254 | 9.0 | 13.0 | 0.00 | 0.07 | 0.01 | 94 | 1013.7 |
| 20260901043204 | 58 | 238 | 7.0 | 14.0 | 0.00 | 0.07 | 0.01 | 94 | 1013.7 |
| 20260901042704 | 58 | 244 | 6.0 | 12.0 | 0.00 | 0.07 | 0.01 | 94 | 1013.7 |
| 20260901042203 | 58 | 242 | 8.0 | 14.0 | 0.00 | 0.07 | 0.01 | 94 | 1013.7 |
| 20260901041704 | 58 | 252 | 6.0 | 12.0 | 0.01 | 0.07 | 0.01 | 94 | 1013.7 |
| 20260901041204 | 58 | 257 | 6.0 | 12.0 | 0.01 | 0.07 | 0.01 | 94 | 1013.8 |
| 20260901040204 | 57 | 255 | 6.0 | 10.0 | 0.01 | 0.07 | 0.01 | 94 | 1013.8 |
| 20260901035704 | 58 | 226 | 6.0 | 12.0 | 0.01 | 0.07 | 0.01 | 94 | 1013.9 |
| 20260901035203 | 58 | 221 | 6.0 | 8.0 | 0.01 | 0.07 | 0.01 | 94 | 1014.0 |
| 20260901034703 | 58 | 234 | 5.0 | 8.0 | 0.01 | 0.07 | 0.01 | 94 | 1014.0 |
| 20260901034204 | 58 | 226 | 6.0 | 10.0 | 0.01 | 0.07 | 0.01 | 94 | 1013.9 |
| 20260901033704 | 58 | 247 | 6.0 | 9.0 | 0.01 | 0.07 | 0.01 | 94 | 1013.8 |
| 20260901032704 | 57 | 234 | 7.0 | 12.0 | 0.01 | 0.07 | 0.01 | 94 | 1013.8 |
| 20260901032204 | 57 | 255 | 6.0 | 12.0 | 0.01 | 0.07 | 0.01 | 94 | 1013.8 |
| 20260901031703 | 57 | 241 | 5.0 | 8.0 | 0.00 | 0.06 | 0.00 | 94 | 1013.7 |
| 20260901031203 | 57 | 240 | 5.0 | 9.0 | 0.00 | 0.06 | 0.00 | 93 | 1013.8 |
| 20260901030203 | 58 | 220 | 6.0 | 10.0 | 0.00 | 0.06 | 0.00 | 93 | 1013.7 |
| 20260901025704 | 58 | 256 | 6.0 | 12.0 | 0.00 | 0.06 | 0.00 | 93 | 1013.8 |
| 20260901025204 | 58 | 239 | 6.0 | 12.0 | 0.00 | 0.06 | 0.00 | 93 | 1013.8 |
| 20260901024704 | 58 | 220 | 8.0 | 12.0 | 0.00 | 0.06 | 0.00 | 93 | 1013.8 |
| 20260901024203 | 58 | 231 | 7.0 | 14.0 | 0.00 | 0.06 | 0.00 | 93 | 1013.8 |
| 20260901023704 | 58 | 235 | 7.0 | 15.0 | 0.00 | 0.06 | 0.00 | 93 | 1013.8 |
| 20260901023204 | 58 | 245 | 9.0 | 14.0 | 0.00 | 0.06 | 0.00 | 93 | 1013.8 |
| 20260901022704 | 58 | 243 | 6.0 | 13.0 | 0.00 | 0.06 | 0.00 | 93 | 1013.8 |
| 20260901022204 | 58 | 241 | 9.0 | 17.0 | 0.00 | 0.06 | 0.00 | 93 | 1013.9 |
| 20260901021703 | 58 | 245 | 7.0 | 17.0 | 0.00 | 0.06 | 0.00 | 93 | 1013.9 |
| 20260901021204 | 58 | 237 | 8.0 | 15.0 | 0.00 | 0.06 | 0.00 | 93 | 1013.9 |
| 20260901020704 | 58 | 232 | 7.0 | 13.0 | 0.00 | 0.06 | 0.00 | 94 | 1013.9 |
| 20260901015703 | 58 | 221 | 7.0 | 12.0 | 0.00 | 0.06 | 0.00 | 93 | 1013.9 |
| 20260901015204 | 58 | 269 | 7.0 | 14.0 | 0.00 | 0.06 | 0.00 | 94 | 1014.0 |
| 20260901014704 | 58 | 236 | 5.0 | 12.0 | 0.00 | 0.06 | 0.00 | 94 | 1014.1 |
| 20260901014203 | 58 | 217 | 6.0 | 12.0 | 0.00 | 0.06 | 0.00 | 94 | 1014.2 |
| 20260901013703 | 58 | 230 | 6.0 | 10.0 | 0.00 | 0.06 | 0.00 | 94 | 1014.2 |
| 20260901012704 | 58 | 223 | 5.0 | 12.0 | 0.00 | 0.06 | 0.00 | 94 | 1014.3 |
| 20260901012204 | 58 | 228 | 6.0 | 12.0 | 0.00 | 0.06 | 0.00 | 94 | 1014.3 |
| 20260901011704 | 58 | 221 | 6.0 | 13.0 | 0.00 | 0.06 | 0.00 | 94 | 1014.3 |
| 20260901011204 | 57 | 233 | 7.0 | 12.0 | 0.00 | 0.06 | 0.00 | 94 | 1014.4 |
| 20260901010704 | 57 | 240 | 6.0 | 12.0 | 0.00 | 0.06 | 0.00 | 94 | 1014.4 |
| 20260901005704 | 57 | 258 | 6.0 | 12.0 | 0.00 | 0.06 | 0.00 | 94 | 1014.4 |
| 20260901005203 | 57 | 266 | 6.0 | 12.0 | 0.00 | 0.06 | 0.00 | 94 | 1014.4 |
| 20260901004704 | 57 | 231 | 5.0 | 10.0 | 0.00 | 0.06 | 0.00 | 94 | 1014.4 |
| 20260901004204 | 57 | 229 | 5.0 | 9.0 | 0.00 | 0.06 | 0.00 | 94 | 1014.4 |
| 20260901003704 | 57 | 238 | 5.0 | 12.0 | 0.00 | 0.06 | 0.00 | 94 | 1014.4 |
| 20260901002704 | 57 | 226 | 5.0 | 9.0 | 0.00 | 0.06 | 0.00 | 94 | 1014.5 |
| 20260901001704 | 57 | 234 | 5.0 | 9.0 | 0.00 | 0.06 | 0.00 | 94 | 1014.6 |
| 20260901001204 | 57 | 239 | 5.0 | 8.0 | 0.00 | 0.06 | 0.00 | 94 | 1014.5 |
| 20260901000704 | 57 | 234 | 6.0 | 10.0 | 0.00 | 0.06 | 0.00 | 94 | 1014.6 |
| 20260901000204 | 57 | 225 | 5.0 | 9.0 | 0.00 | 0.06 | 0.00 | 94 | 1014.7 |
| 20260831235703 | 56 | 223 | 5.0 | 10.0 | 0.00 | 0.06 | 0.00 | 94 | 1014.6 |
| 20260831234704 | 56 | 241 | 3.0 | 6.0 | 0.00 | 0.06 | 0.00 | 94 | 1014.8 |
| 20260831234204 | 56 | 236 | 5.0 | 9.0 | 0.00 | 0.06 | 0.00 | 94 | 1014.9 |
| 20260831232704 | 56 | 227 | 6.0 | 9.0 | 0.00 | 0.06 | 0.00 | 94 | 1015.1 |
| 20260831232204 | 56 | 229 | 5.0 | 10.0 | 0.00 | 0.06 | 0.00 | 94 | 1015.1 |
| 20260831231704 | 57 | 219 | 5.0 | 8.0 | 0.00 | 0.06 | 0.00 | 94 | 1015.0 |
| 20260831231203 | 57 | 231 | 5.0 | 10.0 | 0.00 | 0.06 | 0.00 | 94 | 1015.1 |
| 20260831230704 | 57 | 236 | 6.0 | 9.0 | 0.00 | 0.06 | 0.00 | 94 | 1015.2 |
| 20260831230204 | 56 | 235 | 5.0 | 8.0 | 0.00 | 0.06 | 0.00 | 94 | 1015.2 |
| 20260831225704 | 56 | 243 | 5.0 | 9.0 | 0.00 | 0.06 | 0.06 | 94 | 1015.2 |
| 20260831225205 | 56 | 242 | 2.0 | 5.0 | 0.00 | 0.06 | 0.06 | 94 | 1015.3 |
| 20260831224704 | 56 | 230 | 3.0 | 7.0 | 0.00 | 0.06 | 0.06 | 94 | 1015.2 |
| 20260831224204 | 56 | 230 | 5.0 | 8.0 | 0.00 | 0.07 | 0.06 | 94 | 1015.3 |
| 20260831223704 | 56 | 220 | 4.0 | 8.0 | 0.01 | 0.08 | 0.06 | 94 | 1015.3 |
| 20260831222703 | 56 | 212 | 5.0 | 8.0 | 0.01 | 0.09 | 0.06 | 94 | 1015.2 |
| 20260831222204 | 56 | 227 | 5.0 | 12.0 | 0.01 | 0.14 | 0.06 | 94 | 1015.3 |
| 20260831221703 | 56 | 217 | 5.0 | 10.0 | 0.01 | 0.14 | 0.06 | 94 | 1015.1 |
| 20260831221204 | 56 | 221 | 5.0 | 12.0 | 0.01 | 0.14 | 0.06 | 94 | 1015.2 |
| 20260831220704 | 57 | 223 | 5.0 | 10.0 | 0.01 | 0.14 | 0.06 | 94 | 1015.3 |
| 20260831220204 | 57 | 250 | 6.0 | 10.0 | 0.01 | 0.14 | 0.06 | 94 | 1015.3 |
| 20260831215704 | 57 | 216 | 5.0 | 9.0 | 0.01 | 0.14 | 0.06 | 94 | 1015.4 |
| 20260831215203 | 57 | 218 | 7.0 | 12.0 | 0.01 | 0.14 | 0.06 | 94 | 1015.3 |
| 20260831214704 | 57 | 226 | 7.0 | 14.0 | 0.01 | 0.14 | 0.06 | 94 | 1015.3 |
| 20260831214204 | 57 | 229 | 8.0 | 12.0 | 0.01 | 0.14 | 0.06 | 94 | 1015.3 |
| 20260831213703 | 57 | 231 | 5.0 | 7.0 | 0.00 | 0.13 | 0.06 | 94 | 1015.3 |
| 20260831213204 | 56 | 219 | 6.0 | 8.0 | 0.00 | 0.13 | 0.06 | 93 | 1015.4 |
| 20260831212704 | 57 | 207 | 3.0 | 6.0 | 0.00 | 0.13 | 0.06 | 94 | 1015.3 |
| 20260831212204 | 57 | 209 | 3.0 | 6.0 | 0.00 | 0.13 | 0.06 | 94 | 1015.4 |
| 20260831211704 | 57 | 226 | 5.0 | 8.0 | 0.00 | 0.13 | 0.06 | 94 | 1015.4 |
| 20260831210704 | 56 | 225 | 4.0 | 8.0 | 0.00 | 0.13 | 0.06 | 93 | 1015.5 |
| 20260831205704 | 56 | 220 | 5.0 | 10.0 | 0.00 | 0.13 | 0.06 | 93 | 1015.4 |
| 20260831205204 | 56 | 221 | 5.0 | 8.0 | 0.00 | 0.13 | 0.06 | 93 | 1015.4 |
| 20260831204704 | 56 | 210 | 5.0 | 8.0 | 0.00 | 0.13 | 0.06 | 93 | 1015.5 |
| 20260831203704 | 56 | 247 | 5.0 | 7.0 | 0.00 | 0.13 | 0.06 | 93 | 1015.4 |
| 20260831203204 | 56 | 232 | 5.0 | 10.0 | 0.00 | 0.13 | 0.06 | 93 | 1015.5 |
| 20260831201703 | 57 | 217 | 5.0 | 9.0 | 0.00 | 0.13 | 0.06 | 93 | 1015.4 |
| 20260831201204 | 57 | 248 | 4.0 | 6.0 | 0.00 | 0.13 | 0.06 | 93 | 1015.4 |
| 20260831200704 | 57 | 222 | 5.0 | 8.0 | 0.00 | 0.13 | 0.06 | 93 | 1015.4 |
| 20260831200204 | 57 | 226 | 4.0 | 8.0 | 0.00 | 0.13 | 0.06 | 93 | 1015.6 |
| 20260831195704 | 57 | 215 | 3.0 | 9.0 | 0.00 | 0.13 | 0.06 | 93 | 1015.4 |
| 20260831195204 | 57 | 223 | 5.0 | 9.0 | 0.00 | 0.13 | 0.06 | 93 | 1015.5 |
| 20260831194704 | 57 | 225 | 5.0 | 8.0 | 0.00 | 0.13 | 0.06 | 93 | 1015.4 |
| 20260831194204 | 57 | 225 | 5.0 | 9.0 | 0.00 | 0.13 | 0.06 | 93 | 1015.4 |
| 20260831193704 | 57 | 220 | 6.0 | 10.0 | 0.00 | 0.13 | 0.06 | 93 | 1015.4 |
| 20260831193204 | 57 | 215 | 6.0 | 10.0 | 0.00 | 0.13 | 0.06 | 93 | 1015.4 |
| 20260831192704 | 57 | 244 | 5.0 | 8.0 | 0.00 | 0.13 | 0.06 | 93 | 1015.3 |
| 20260831192204 | 57 | 193 | 4.0 | 6.0 | 0.00 | 0.13 | 0.06 | 93 | 1015.3 |
| 20260831191703 | 57 | 231 | 5.0 | 6.0 | 0.00 | 0.13 | 0.06 | 93 | 1015.2 |
| 20260831191204 | 57 | 210 | 5.0 | 7.0 | 0.01 | 0.13 | 0.06 | 93 | 1015.2 |
| 20260831190705 | 57 | 207 | 4.0 | 6.0 | 0.02 | 0.13 | 0.06 | 93 | 1015.1 |
| 20260831190203 | 57 | 208 | 5.0 | 7.0 | 0.02 | 0.14 | 0.06 | 93 | 1015.1 |
| 20260831185704 | 57 | 213 | 3.0 | 7.0 | 0.02 | 0.14 | 0.06 | 93 | 1015.0 |
| 20260831185204 | 57 | 217 | 5.0 | 9.0 | 0.02 | 0.14 | 0.06 | 93 | 1015.1 |
| 20260831184705 | 57 | 216 | 4.0 | 7.0 | 0.02 | 0.14 | 0.06 | 93 | 1015.1 |
| 20260831184204 | 57 | 225 | 6.0 | 9.0 | 0.02 | 0.15 | 0.06 | 93 | 1015.1 |
| 20260831183704 | 57 | 216 | 6.0 | 12.0 | 0.02 | 0.19 | 0.06 | 93 | 1015.1 |
| 20260831183204 | 57 | 233 | 7.0 | 14.0 | 0.02 | 0.19 | 0.06 | 93 | 1015.1 |
| 20260831182704 | 57 | 227 | 6.0 | 12.0 | 0.02 | 0.19 | 0.06 | 93 | 1015.1 |
| 20260831182203 | 57 | 226 | 6.0 | 12.0 | 0.02 | 0.19 | 0.06 | 92 | 1015.2 |
| 20260831181704 | 58 | 233 | 6.0 | 10.0 | 0.02 | 0.19 | 0.06 | 92 | 1015.2 |
| 20260831181203 | 58 | 242 | 6.0 | 12.0 | 0.02 | 0.18 | 0.05 | 92 | 1015.2 |
| 20260831180203 | 58 | 229 | 5.0 | 9.0 | 0.00 | 0.17 | 0.03 | 92 | 1015.1 |
| 20260831175703 | 58 | 228 | 4.0 | 8.0 | 0.00 | 0.17 | 0.03 | 92 | 1015.1 |
| 20260831175204 | 58 | 238 | 5.0 | 12.0 | 0.00 | 0.17 | 0.03 | 92 | 1015.2 |
| 20260831174704 | 58 | 232 | 4.0 | 10.0 | 0.00 | 0.17 | 0.03 | 92 | 1015.0 |
| 20260831174204 | 58 | 229 | 5.0 | 8.0 | 0.00 | 0.17 | 0.03 | 92 | 1015.1 |
| 20260831173204 | 57 | 177 | 6.0 | 9.0 | 0.00 | 0.17 | 0.03 | 92 | 1015.0 |
| 20260831172204 | 57 | 193 | 3.0 | 8.0 | 0.00 | 0.17 | 0.03 | 92 | 1015.0 |
| 20260831171703 | 57 | 181 | 5.0 | 9.0 | 0.00 | 0.17 | 0.03 | 92 | 1015.1 |
| 20260831171203 | 57 | 189 | 4.0 | 6.0 | 0.00 | 0.17 | 0.03 | 92 | 1015.2 |
| 20260831170204 | 57 | 222 | 5.0 | 9.0 | 0.00 | 0.17 | 0.03 | 92 | 1015.1 |
| 20260831165704 | 57 | 218 | 5.0 | 8.0 | 0.01 | 0.17 | 0.03 | 92 | 1015.2 |
| 20260831165204 | 57 | 225 | 5.0 | 8.0 | 0.01 | 0.17 | 0.03 | 92 | 1015.2 |
| 20260831164204 | 57 | 210 | 6.0 | 9.0 | 0.01 | 0.17 | 0.03 | 91 | 1015.3 |
| 20260831163703 | 57 | 238 | 3.0 | 8.0 | 0.01 | 0.17 | 0.03 | 91 | 1015.2 |
| 20260831163203 | 57 | 227 | 5.0 | 8.0 | 0.01 | 0.17 | 0.03 | 91 | 1015.3 |
| 20260831162704 | 57 | 236 | 4.0 | 9.0 | 0.01 | 0.17 | 0.03 | 91 | 1015.2 |
| 20260831162205 | 57 | 243 | 4.0 | 10.0 | 0.01 | 0.17 | 0.03 | 90 | 1015.3 |
| 20260831161705 | 57 | 236 | 6.0 | 13.0 | 0.01 | 0.17 | 0.03 | 90 | 1015.2 |
| 20260831161204 | 57 | 244 | 8.0 | 17.0 | 0.01 | 0.17 | 0.03 | 89 | 1015.4 |
| 20260831160203 | 58 | 255 | 6.0 | 14.0 | 0.02 | 0.17 | 0.03 | 88 | 1015.2 |
| 20260831155703 | 58 | 244 | 10.0 | 15.0 | 0.01 | 0.17 | 0.02 | 87 | 1015.3 |
| 20260831155204 | 59 | 226 | 7.0 | 14.0 | 0.01 | 0.17 | 0.02 | 87 | 1015.0 |
| 20260831154705 | 59 | 233 | 6.0 | 12.0 | 0.01 | 0.17 | 0.02 | 89 | 1014.9 |
| 20260831154204 | 59 | 227 | 6.0 | 12.0 | 0.01 | 0.17 | 0.02 | 89 | 1014.9 |
| 20260831153705 | 59 | 238 | 5.0 | 9.0 | 0.01 | 0.17 | 0.02 | 89 | 1015.0 |
| 20260831153204 | 58 | 239 | 6.0 | 9.0 | 0.01 | 0.19 | 0.02 | 89 | 1015.0 |
| 20260831152704 | 58 | 223 | 5.0 | 8.0 | 0.01 | 0.20 | 0.02 | 89 | 1015.1 |